FW0313 Weather Reports


time (UTC)temp
C
wind
direction
speed
KPH
gust
KPH
rain 1hr
cm
rain 24hr
cm
rain mn
cm
humidity
%
barometer
mb
20260906130602 18 36 1.6 3.2 0.00 0.00 0.00 99 1023.3
20260906130057 18 23 1.6 4.8 0.00 0.00 0.00 99 1023.4
20260906125554 18 310 0.0 4.8 0.00 0.00 0.00 99 1023.3
20260906125049 18 0 0.0 3.2 0.00 0.00 0.00 99 1023.1
20260906124544 17 35 0.0 3.2 0.00 0.00 0.00 99 1023.2
20260906124039 17 28 3.2 4.8 0.00 0.00 0.00 99 1023.1
20260906123538 17 330 0.0 3.2 0.00 0.00 0.00 99 1023.0
20260906123033 16 205 0.0 0.0 0.00 0.00 0.00 99 1022.9
20260906122527 16 142 0.0 1.6 0.00 0.00 0.00 99 1023.2
20260906122024 15 169 0.0 3.2 0.00 0.00 0.00 99 1023.1
20260906121519 15 129 0.0 1.6 0.00 0.00 0.00 99 1023.0
20260906121015 15 142 0.0 1.6 0.00 0.00 0.00 99 1022.9
20260906120516 15 44 0.0 3.2 0.00 0.00 0.00 99 1022.6
20260906120013 15 7 3.2 4.8 0.00 0.00 0.00 99 1022.5
20260906115508 15 357 0.0 3.2 0.00 0.00 0.00 99 1022.5
20260906115002 15 116 0.0 0.0 0.00 0.00 0.00 99 1022.5
20260906114456 15 89 0.0 1.6 0.00 0.00 0.00 99 1022.4
20260906113953 15 297 0.0 1.6 0.00 0.00 0.00 99 1022.4
20260906113451 15 37 0.0 1.6 0.00 0.00 0.00 99 1022.1
20260906112947 15 132 1.6 3.2 0.00 0.00 0.00 99 1022.1
20260906112442 13 46 0.0 1.6 0.00 0.00 0.00 99 1022.1
20260906111937 14 113 0.0 1.6 0.00 0.00 0.00 99 1022.1
20260906111431 14 55 0.0 1.6 0.00 0.00 0.00 99 1022.1
20260906110926 13 147 0.0 3.2 0.00 0.00 0.00 99 1022.0
20260906110422 13 5 0.0 1.6 0.00 0.00 0.00 99 1022.1
20260906105921 14 72 0.0 0.0 0.00 0.00 0.00 99 1022.0
20260906105417 14 25 0.0 1.6 0.00 0.00 0.00 99 1021.8
20260906104912 14 164 0.0 1.6 0.00 0.00 0.00 99 1021.9
20260906104411 13 115 0.0 1.6 0.00 0.00 0.00 99 1022.1
20260906103910 14 22 0.0 1.6 0.00 0.00 0.00 99 1022.0
20260906103408 14 12 3.2 3.2 0.00 0.00 0.00 99 1022.2
20260906102904 14 117 0.0 1.6 0.00 0.00 0.00 99 1021.9
20260906102403 13 142 0.0 1.6 0.00 0.00 0.00 99 1021.9
20260906101858 13 104 0.0 0.0 0.00 0.00 0.00 99 1022.0
20260906101353 14 104 0.0 1.6 0.00 0.00 0.00 99 1022.0
20260906100849 14 135 0.0 1.6 0.00 0.00 0.00 99 1021.9
20260906100348 14 297 0.0 1.6 0.00 0.00 0.00 99 1021.8
20260906095843 14 35 0.0 1.6 0.00 0.00 0.00 99 1021.8
20260906095339 14 60 0.0 1.6 0.00 0.00 0.00 99 1021.7
20260906094837 14 22 0.0 1.6 0.00 0.00 0.00 99 1021.7
20260906094333 14 137 1.6 1.6 0.00 0.00 0.00 99 1021.7
20260906093829 14 144 0.0 1.6 0.00 0.00 0.00 99 1021.7
20260906093325 14 104 0.0 0.0 0.00 0.00 0.00 99 1021.6
20260906092819 14 315 0.0 0.0 0.00 0.00 0.00 99 1021.7
20260906092314 15 154 0.0 3.2 0.00 0.00 0.00 99 1021.7
20260906091810 14 130 0.0 1.6 0.00 0.00 0.00 99 1021.7
20260906091306 14 50 0.0 1.6 0.00 0.00 0.00 99 1021.5
20260906090802 15 329 0.0 3.2 0.00 0.00 0.00 99 1021.6
20260906090300 15 55 0.0 1.6 0.00 0.00 0.00 99 1021.6
20260906085800 15 112 0.0 3.2 0.00 0.00 0.00 99 1021.4
20260906085253 15 129 0.0 1.6 0.00 0.00 0.00 99 1021.5
20260906084748 15 354 0.0 3.2 0.00 0.00 0.00 99 1021.7
20260906084242 15 44 0.0 3.2 0.00 0.00 0.00 99 1021.7
20260906083738 15 6 1.6 1.6 0.00 0.00 0.00 99 1021.6
20260906083233 15 142 0.0 0.0 0.00 0.00 0.00 99 1021.5
20260906082728 15 117 0.0 1.6 0.00 0.00 0.00 99 1021.6
20260906082223 15 113 0.0 1.6 0.00 0.00 0.00 99 1021.5
20260906081719 15 353 0.0 4.8 0.00 0.00 0.00 99 1021.5
20260906081219 15 18 1.6 4.8 0.00 0.00 0.00 99 1021.6
20260906080715 15 50 0.0 1.6 0.00 0.00 0.00 99 1021.7
20260906080211 15 50 0.0 1.6 0.00 0.00 0.00 99 1021.7
20260906075706 15 157 0.0 0.0 0.00 0.00 0.00 99 1021.8
20260906075201 15 157 0.0 1.6 0.00 0.00 0.00 99 1021.7
20260906074656 15 103 0.0 1.6 0.00 0.00 0.00 99 1021.7
20260906074154 15 154 0.0 0.0 0.00 0.00 0.00 99 1021.7
20260906073649 15 154 0.0 1.6 0.00 0.00 0.00 99 1021.5
20260906073139 15 50 0.0 0.0 0.00 0.00 0.00 99 1021.6
20260906072635 15 50 0.0 3.2 0.00 0.00 0.00 99 1021.6
20260906072130 16 7 1.6 3.2 0.00 0.00 0.00 99 1021.6
20260906071626 15 42 0.0 3.2 0.00 0.00 0.00 99 1021.6
20260906071121 15 38 0.0 1.6 0.00 0.00 0.00 99 1021.8
20260906070618 15 37 0.0 1.6 0.00 0.00 0.00 99 1021.9
20260906070113 16 104 0.0 0.0 0.00 0.00 0.00 99 1022.0
20260906065612 16 345 0.0 0.0 0.00 0.00 0.00 99 1021.8
20260906065108 16 345 0.0 1.6 0.00 0.00 0.00 99 1021.8
20260906064604 16 53 0.0 1.6 0.00 0.00 0.00 99 1022.0
20260906064058 16 32 0.0 1.6 0.00 0.00 0.00 99 1021.7
20260906063553 16 19 0.0 3.2 0.00 0.00 0.00 99 1021.8
20260906063049 17 44 0.0 1.6 0.00 0.00 0.00 99 1021.9
20260906062544 17 117 0.0 1.6 0.00 0.00 0.00 99 1022.0
20260906062038 17 104 0.0 1.6 0.00 0.00 0.00 99 1022.0
20260906061535 17 129 0.0 1.6 0.00 0.00 0.00 99 1022.1
20260906061034 17 135 0.0 3.2 0.00 0.00 0.00 99 1022.0
20260906060531 17 166 1.6 3.2 0.00 0.00 0.00 99 1021.9
20260906060028 17 154 0.0 1.6 0.00 0.00 0.00 99 1021.9
20260906055523 17 154 0.0 0.0 0.00 0.00 0.00 99 1021.8
20260906055018 17 147 0.0 1.6 0.00 0.00 0.00 99 1021.8
20260906054513 17 0 0.0 0.0 0.00 0.00 0.00 99 1021.8
20260906054008 17 0 0.0 0.0 0.00 0.00 0.00 99 1021.4
20260906053504 17 0 0.0 1.6 0.00 0.00 0.00 99 1021.7
20260906053000 17 352 0.0 3.2 0.00 0.00 0.00 99 1021.5
20260906052455 17 50 0.0 1.6 0.00 0.00 0.00 99 1021.5
20260906051952 17 322 0.0 3.2 0.00 0.00 0.00 99 1021.4
20260906051448 17 129 0.0 1.6 0.00 0.00 0.00 99 1021.6
20260906050943 17 89 0.0 0.0 0.00 0.00 0.00 99 1021.7
20260906050442 17 89 0.0 0.0 0.00 0.00 0.00 99 1021.6
20260906045942 17 89 0.0 0.0 0.00 0.00 0.00 99 1021.6
20260906045441 17 89 0.0 0.0 0.00 0.00 0.00 99 1021.5
20260906044937 17 89 0.0 0.0 0.00 0.00 0.00 99 1021.4
20260906044432 17 89 0.0 0.0 0.00 0.00 0.00 99 1021.2
20260906043927 17 89 0.0 0.0 0.00 0.00 0.00 99 1021.3
20260906043423 17 89 0.0 0.0 0.00 0.00 0.00 99 1021.0
20260906042919 18 89 0.0 0.0 0.00 0.00 0.00 99 1021.2
20260906042418 17 89 0.0 1.6 0.00 0.00 0.00 99 1021.2
20260906041913 18 37 0.0 3.2 0.00 0.00 0.00 99 1021.3
20260906041409 18 5 1.6 3.2 0.00 0.00 0.00 99 1021.2
20260906040909 18 129 0.0 0.0 0.00 0.00 0.00 99 1021.2
20260906040404 18 129 0.0 1.6 0.00 0.00 0.00 99 1021.1
20260906035859 18 62 0.0 1.6 0.00 0.00 0.00 99 1021.0
20260906035354 18 62 0.0 1.6 0.00 0.00 0.00 99 1021.1
20260906034849 18 32 0.0 1.6 0.00 0.00 0.00 99 1021.2
20260906034344 19 50 0.0 1.6 0.00 0.00 0.00 99 1020.9
20260906033840 19 119 0.0 1.6 0.00 0.00 0.00 99 1021.1
20260906033339 19 311 1.6 3.2 0.00 0.00 0.00 99 1021.0
20260906032836 19 16 1.6 3.2 0.00 0.00 0.00 99 1020.8
20260906032331 20 32 0.0 1.6 0.00 0.00 0.00 99 1021.0
20260906031826 20 347 4.8 6.4 0.00 0.00 0.00 99 1020.8
20260906031322 20 13 1.6 3.2 0.00 0.00 0.00 99 1020.8
20260906030821 20 13 3.2 4.8 0.00 0.00 0.00 99 1020.7
20260906030317 20 27 1.6 4.8 0.00 0.00 0.00 99 1020.7
20260906025811 20 15 1.6 3.2 0.00 0.00 0.00 99 1020.4
20260906025306 20 25 4.8 6.4 0.00 0.00 0.00 99 1020.4
20260906024804 20 357 1.6 6.4 0.00 0.00 0.00 98 1020.7
20260906024303 20 36 0.0 8.0 0.00 0.00 0.00 98 1020.4
20260906023759 20 22 3.2 4.8 0.00 0.00 0.00 98 1020.3
20260906023254 20 338 0.0 6.4 0.00 0.00 0.00 98 1020.3
20260906022750 20 15 4.8 6.4 0.00 0.00 0.00 98 1020.2
20260906022245 20 17 3.2 6.4 0.00 0.00 0.00 98 1020.2
20260906021741 20 2 3.2 4.8 0.00 0.00 0.00 98 1020.2
20260906021240 20 89 0.0 8.0 0.00 0.00 0.00 98 1020.1
20260906020734 20 15 3.2 4.8 0.00 0.00 0.00 98 1019.9
20260906020229 20 53 1.6 11.3 0.00 0.00 0.00 98 1020.1
20260906015724 20 32 3.2 8.0 0.00 0.00 0.00 98 1019.9
20260906015222 20 323 3.2 6.4 0.00 0.00 0.00 98 1020.0
20260906014717 20 341 4.8 8.0 0.00 0.00 0.00 98 1020.1
20260906014213 20 73 4.8 8.0 0.00 0.00 0.00 98 1020.1
20260906013709 20 21 3.2 6.4 0.00 0.00 0.00 97 1020.2
20260906013209 21 69 3.2 4.8 0.00 0.00 0.00 97 1020.1
20260906012703 21 248 1.6 4.8 0.00 0.00 0.00 97 1020.1
20260906012157 21 0 3.2 6.4 0.00 0.00 0.00 97 1020.0
20260906011653 21 25 0.0 6.4 0.00 0.00 0.00 96 1019.9
20260906011148 21 332 0.0 4.8 0.00 0.00 0.00 96 1019.9
20260906010644 21 19 0.0 3.2 0.00 0.00 0.00 95 1020.1
20260906010140 21 339 3.2 4.8 0.00 0.00 0.00 95 1020.1
20260906005639 21 7 3.2 4.8 0.00 0.00 0.00 94 1019.9
20260906005138 21 42 1.6 8.0 0.00 0.00 0.00 93 1019.8
20260906004638 22 24 3.2 6.4 0.00 0.00 0.00 93 1019.8
20260906004133 22 20 4.8 4.8 0.00 0.00 0.00 93 1019.8
20260906003628 22 112 0.0 6.4 0.00 0.00 0.00 93 1019.8
20260906003124 22 77 1.6 11.3 0.00 0.00 0.00 92 1019.6
20260906002619 22 238 0.0 6.4 0.00 0.00 0.00 92 1019.5
20260906002113 23 338 4.8 11.3 0.00 0.00 0.00 91 1019.7
20260906001608 23 341 3.2 6.4 0.00 0.00 0.00 91 1019.8
20260906001103 23 310 0.0 11.3 0.00 0.00 0.00 90 1019.7
20260906000559 23 26 4.8 9.7 0.00 0.00 0.00 90 1019.6
20260906000054 24 17 4.8 8.0 0.00 0.00 0.00 89 1019.6
20260905235553 24 12 11.3 20.9 0.00 0.00 0.00 89 1019.6
20260905235048 24 3 6.4 17.7 0.00 0.00 0.00 88 1019.7
20260905234544 25 1 11.3 14.5 0.00 0.00 0.00 88 1019.6
20260905234039 25 12 4.8 11.3 0.00 0.00 0.00 87 1019.7
20260905233538 25 0 6.4 17.7 0.00 0.00 0.00 87 1019.6
20260905233038 25 1 6.4 16.1 0.00 0.00 0.00 86 1019.5
20260905232534 26 345 4.8 16.1 0.00 0.00 0.00 85 1019.3
20260905232029 26 356 11.3 11.3 0.00 0.00 0.00 85 1019.5
20260905231524 26 4 9.7 11.3 0.00 0.00 0.00 83 1019.2
20260905231021 26 7 4.8 8.0 0.00 0.00 0.00 83 1019.2
20260905230520 26 8 11.3 14.5 0.00 0.00 0.00 83 1019.2
20260905230018 26 354 8.0 14.5 0.00 0.00 0.00 84 1019.3
20260905225513 26 328 6.4 11.3 0.00 0.00 0.00 83 1019.1
20260905225009 26 1 8.0 14.5 0.00 0.00 0.00 83 1018.9
20260905224504 26 358 9.7 14.5 0.00 0.00 0.00 82 1019.0
20260905224003 26 4 9.7 14.5 0.00 0.00 0.00 83 1019.1
20260905223501 26 3 9.7 16.1 0.00 0.00 0.00 82 1019.2
20260905222955 26 6 12.9 16.1 0.00 0.00 0.00 81 1019.2
20260905222450 26 348 9.7 17.7 0.00 0.00 0.00 81 1019.0
20260905221945 26 4 9.7 16.1 0.00 0.00 0.00 81 1019.0
20260905221442 27 354 3.2 9.7 0.00 0.00 0.00 81 1019.0
20260905220938 26 341 16.1 19.3 0.00 0.00 0.00 81 1019.0
20260905220433 26 3 6.4 16.1 0.00 0.00 0.00 81 1019.1
20260905215932 26 5 9.7 12.9 0.00 0.00 0.00 83 1018.9
20260905215428 26 7 8.0 17.7 0.00 0.00 0.00 81 1018.9
20260905214924 26 6 17.7 20.9 0.00 0.00 0.00 80 1018.9
20260905214419 26 7 6.4 17.7 0.00 0.00 0.00 81 1018.7
20260905213914 26 322 8.0 17.7 0.00 0.00 0.00 80 1018.9
20260905213410 27 332 6.4 12.9 0.00 0.00 0.00 79 1018.8
20260905212905 27 4 9.7 11.3 0.00 0.00 0.00 81 1018.8
20260905212400 27 305 6.4 12.9 0.00 0.00 0.00 80 1018.8
20260905211854 26 348 6.4 16.1 0.00 0.00 0.00 80 1018.8
20260905211349 27 325 11.3 14.5 0.00 0.00 0.00 80 1019.1
20260905210846 26 352 8.0 16.1 0.00 0.00 0.00 80 1019.0
20260905210345 26 352 8.0 14.5 0.00 0.00 0.00 81 1019.0
20260905205844 27 52 8.0 17.7 0.00 0.00 0.00 79 1019.0
20260905205339 27 312 9.7 12.9 0.00 0.00 0.00 78 1019.1
20260905204838 27 12 1.6 12.9 0.00 0.00 0.00 82 1019.0
20260905204335 26 355 4.8 14.5 0.00 0.00 0.00 84 1019.0
20260905203833 26 326 14.5 17.7 0.00 0.00 0.00 82 1019.1
20260905203330 27 316 6.4 14.5 0.00 0.00 0.00 80 1019.2
20260905202825 27 4 9.7 12.9 0.00 0.00 0.00 82 1019.1
20260905202319 26 342 3.2 12.9 0.00 0.00 0.00 83 1019.1
20260905201815 26 1 4.8 14.5 0.00 0.00 0.00 85 1019.2
20260905201311 26 1 11.3 16.1 0.00 0.00 0.00 86 1019.3
20260905200805 26 346 3.2 9.7 0.00 0.00 0.00 85 1019.2
20260905200301 26 349 8.0 11.3 0.00 0.00 0.00 84 1019.3
20260905195759 25 0 9.7 14.5 0.00 0.00 0.00 87 1019.5
20260905195254 25 335 6.4 9.7 0.00 0.00 0.00 89 1019.3
20260905194749 25 320 6.4 12.9 0.00 0.00 0.00 87 1019.6
20260905194249 25 335 8.0 16.1 0.00 0.00 0.00 87 1019.3
20260905193749 25 335 4.8 14.5 0.00 0.00 0.00 87 1019.3
20260905193244 25 285 6.4 9.7 0.00 0.00 0.00 88 1019.2
20260905192739 25 6 6.4 11.3 0.00 0.00 0.00 89 1019.5
20260905192235 25 5 4.8 11.3 0.00 0.00 0.00 91 1019.5
20260905191734 24 359 9.7 11.3 0.00 0.00 0.00 91 1019.5
20260905191233 24 333 6.4 12.9 0.00 0.00 0.00 92 1019.7
20260905190732 24 7 8.0 14.5 0.00 0.00 0.00 91 1019.6
20260905190230 24 13 14.5 14.5 0.00 0.00 0.00 91 1019.6
20260905185724 24 355 17.7 19.3 0.00 0.00 0.00 91 1019.6
20260905185219 24 351 14.5 17.7 0.00 0.00 0.00 92 1019.8
20260905184718 24 348 8.0 14.5 0.00 0.00 0.00 91 1019.9
20260905184217 23 11 8.0 14.5 0.00 0.00 0.00 92 1019.9
20260905183712 23 332 6.4 14.5 0.00 0.00 0.00 93 1019.9
20260905183208 23 0 6.4 17.7 0.00 0.00 0.00 93 1019.9
20260905182707 23 358 8.0 17.7 0.00 0.00 0.00 93 1019.9
20260905182207 24 344 4.8 12.9 0.00 0.00 0.00 93 1019.8
20260905181702 24 350 3.2 11.3 0.00 0.00 0.00 93 1020.0
20260905181201 23 6 8.0 12.9 0.00 0.00 0.00 93 1019.8
20260905180655 24 3 4.8 17.7 0.00 0.00 0.00 93 1020.0
20260905180151 24 347 9.7 16.1 0.00 0.00 0.00 92 1020.0
20260905175650 24 315 11.3 11.3 0.00 0.00 0.00 93 1019.9
20260905175145 24 340 8.0 14.5 0.00 0.00 0.00 94 1019.7
20260905174641 23 0 14.5 19.3 0.00 0.00 0.00 93 1019.8
20260905174137 23 354 11.3 17.7 0.00 0.00 0.00 93 1019.8
20260905173632 23 331 6.4 17.7 0.00 0.00 0.00 93 1019.7
20260905173128 23 259 3.2 14.5 0.00 0.00 0.00 94 1019.9
20260905172627 23 345 4.8 11.3 0.00 0.00 0.00 94 1019.9
20260905172122 23 346 12.9 14.5 0.00 0.00 0.00 94 1020.0
20260905171618 23 342 16.1 19.3 0.00 0.00 0.00 94 1019.9
20260905171114 23 303 8.0 12.9 0.00 0.00 0.00 94 1020.0
20260905170610 23 13 8.0 17.7 0.00 0.00 0.00 94 1020.0
20260905170105 23 356 9.7 17.7 0.00 0.00 0.00 93 1020.0
20260905165600 23 4 4.8 14.5 0.00 0.00 0.00 94 1020.0
20260905165055 23 3 8.0 16.1 0.00 0.00 0.00 94 1019.9
20260905164549 24 17 4.8 14.5 0.00 0.00 0.00 93 1019.9
20260905164044 24 0 11.3 17.7 0.00 0.00 0.00 93 1019.8
20260905163541 24 4 6.4 19.3 0.00 0.00 0.00 93 1019.9
20260905163036 24 16 4.8 17.7 0.00 0.00 0.00 94 1019.9
20260905162533 24 7 12.9 19.3 0.00 0.00 0.00 93 1020.0
20260905162026 24 4 8.0 17.7 0.00 0.00 0.00 93 1019.8
20260905161521 24 17 6.4 16.1 0.00 0.00 0.00 94 1020.0
20260905161018 24 5 6.4 16.1 0.00 0.00 0.00 93 1019.9
20260905160512 23 0 8.0 16.1 0.00 0.00 0.00 94 1019.9
20260905160011 23 357 9.7 14.5 0.00 0.00 0.00 95 1019.8
20260905155506 24 358 8.0 12.9 0.00 0.00 0.00 95 1019.7
20260905155004 23 356 9.7 19.3 0.00 0.00 0.00 94 1019.7
20260905154500 23 12 6.4 14.5 0.00 0.00 0.00 94 1019.8
20260905153955 24 3 14.5 16.1 0.00 0.00 0.00 94 1019.8
20260905153451 24 28 1.6 8.0 0.00 0.00 0.00 96 1019.8
20260905152950 23 0 6.4 14.5 0.00 0.00 0.00 96 1019.8
20260905152445 23 345 6.4 9.7 0.00 0.00 0.00 96 1019.6
20260905151939 23 0 8.0 16.1 0.00 0.00 0.00 96 1019.7
20260905151435 23 358 8.0 17.7 0.00 0.00 0.00 96 1019.7
20260905150931 23 1 6.4 14.5 0.00 0.00 0.00 96 1019.3
20260905150430 23 3 9.7 11.3 0.00 0.00 0.00 96 1019.3
20260905145926 23 6 11.3 19.3 0.00 0.00 0.00 96 1019.5
20260905145421 23 7 11.3 14.5 0.00 0.00 0.00 97 1019.3
20260905144921 23 1 4.8 9.7 0.00 0.00 0.00 98 1019.2
20260905144417 22 0 6.4 12.9 0.00 0.00 0.00 98 1019.1
20260905143915 22 324 8.0 14.5 0.00 0.00 0.00 98 1019.0
20260905143409 22 0 8.0 12.9 0.00 0.00 0.00 99 1019.0
20260905142903 22 8 3.2 6.4 0.00 0.00 0.00 99 1018.8
20260905142402 22 28 0.0 6.4 0.00 0.00 0.00 99 1018.8
20260905141858 22 18 3.2 9.7 0.00 0.00 0.00 99 1018.9
20260905141353 22 353 6.4 12.9 0.00 0.00 0.00 99 1018.8
20260905140850 22 47 3.2 8.0 0.00 0.00 0.00 99 1018.8
20260905140349 22 30 3.2 9.7 0.00 0.00 0.00 99 1018.9
20260905135847 22 40 0.0 9.7 0.00 0.00 0.00 99 1018.9
20260905135344 21 30 3.2 8.0 0.00 0.00 0.00 99 1018.7
20260905134839 21 15 8.0 11.3 0.00 0.00 0.00 99 1018.8
20260905134338 21 8 4.8 8.0 0.00 0.00 0.00 99 1018.8
20260905133833 21 31 6.4 16.1 0.00 0.00 0.00 99 1018.7
20260905133328 21 49 3.2 9.7 0.00 0.00 0.00 99 1018.8
20260905132827 21 5 4.8 8.0 0.00 0.00 0.00 99 1018.7
20260905132323 21 54 3.2 11.3 0.00 0.00 0.00 99 1018.6
20260905131817 21 9 3.2 6.4 0.00 0.00 0.00 99 1018.4
20260905131313 21 48 3.2 17.7 0.00 0.00 0.00 99 1018.6